Regional Weather Roundup
Issued by NWS

Home | Current Version | Previous Version | Text Only | Print | Product List | Glossary On
Versions: 1 2 3 4 5 6 7 8 9 10 11 12 13 14 15 16 17 18 19 20 21 22 23 24 25 26 27 28 29 30 31 32 33 34 35 36 37 38 39 40 41 42 43 44 45 46 47 48 49 50
000
ASUS44 KLIX 190610
RWRLA
LOUISIANA WEATHER ROUNDUP
NATIONAL WEATHER SERVICE NEW ORLEANS LA
1200 AM CST FRI DEC 19 2014

NOTE: "FAIR" INDICATES FEW OR NO CLOUDS BELOW 12,000 FEET WITH NO
      SIGNIFICANT WEATHER AND/OR OBSTRUCTIONS TO VISIBILITY.
      SKY/WX - SKY CONDITION AND SIGNIFICANT WEATHER.
      TMP - AIR TEMPERATURE.    DP   - DEWPOINT TEMPERATURE.
      RH  - RELATIVE HUMIDITY.  PRES - PRESSURE.
      HX  - HEAT INDEX.         WCI  - WIND CHILL INDEX.

*  THESE STATIONS ARE NOT NWS OR FAA STATIONS AND ARE NOT UNDER
   NWS QUALITY CONTROL.

LAZ040-048-061>063-065-066-069-190700-
SOUTHEAST LOUISIANA

CITY           SKY/WX    TMP DP  RH WIND       PRES   REMARKS
N.O. AUDUBON     N/A     59  56  91 MISG        N/A
6HR MIN TEMP:  58; 6HR MAX TEMP:  64; 6HR PCP:  0.07;

N.O. INTL ARPT CLOUDY    58  53  84 E8        30.12F
6HR MIN TEMP:  58; 6HR MAX TEMP:  63; 6HR PCP:  0.03;

N.O. LAKEFRONT CLOUDY    60  54  80 E8        30.13F
6HR MIN TEMP:  59; 6HR MAX TEMP:  61; 6HR PCP:  0.03;

N.O. DOWNTOWN* CLOUDY    57  48  72 NE7       30.13F
6HR MIN TEMP:  57; 6HR MAX TEMP:  63; 6HR PCP:  0.01;

SLIDELL        CLOUDY    56  51  84 NE5       30.14F
6HR MIN TEMP:  56; 6HR MAX TEMP:  60; 6HR PCP: TRACE;

BATON ROUGE    CLOUDY    55  53  93 E8        30.11F
6HR MIN TEMP:  55; 6HR MAX TEMP:  57; 6HR PCP:  0.01;

BOOTHVILLE     CLOUDY    59  58  96 NE3       30.12F
6HR MIN TEMP:  59; 6HR MAX TEMP:  63;

BELLE CHASSE   CLOUDY    59  54  83 NE3       30.12F
6HR MIN TEMP:  57; 6HR MAX TEMP:  61; 6HR PCP:  0.02;

BOGALUSA*        N/A     53  50  89 CALM      30.17F
6HR MIN TEMP:  53; 6HR MAX TEMP:  55; 6HR PCP:  0.06;

GALLIANO*      LGT RAIN  58  57  97 MISG      30.12F
6HR MIN TEMP:  58; 6HR MAX TEMP:  64; 6HR PCP:  0.12;

NEW ROADS*     CLOUDY    54  53  96 E5        30.12F
6HR MIN TEMP:  54; 6HR MAX TEMP:  55; 6HR PCP:  0.01;

GONZALES*      CLOUDY    58  57  96 E3        30.11F
6HR MIN TEMP:  58; 6HR MAX TEMP:  60;

HAMMOND*       NOT AVBL
HOUMA*         LGT RAIN  58  57  99 NE6       30.11F
6HR MIN TEMP:  58; 6HR MAX TEMP:  62; 6HR PCP:  0.08;

PORT FOURCHON* CLOUDY    64  61  88 NE6       30.14S

$$

LAZ041-044-053-054-190700-
SOUTHWEST LOUISIANA

CITY           SKY/WX    TMP DP  RH WIND       PRES   REMARKS
LAKE CHARLES   CLOUDY    56  52  86 E8        30.08F
6HR MIN TEMP:  56; 6HR MAX TEMP:  59; 6HR PCP: TRACE;

LAFAYETTE      CLOUDY    57  54  89 NE3       30.09F
6HR MIN TEMP:  57; 6HR MAX TEMP:  60;

PATTERSON      CLOUDY    59  57  94 E7        30.11F
6HR MIN TEMP:  57; 6HR MAX TEMP:  63;

SALT POINT       N/A     63  59  87 VRB3      30.08F
6HR MIN TEMP:  63; 6HR MAX TEMP:  66; 6HR PCP:  0.08;

NEW IBERIA     CLOUDY    61  56  83 E9        30.10F
6HR MIN TEMP:  61; 6HR MAX TEMP:  65;

CHENAULT AIRPK CLOUDY    55  52  91 NE6       30.08F
6HR MIN TEMP:  55; 6HR MAX TEMP:  56;


$$

LAZ027-028-190700-
CENTRAL LOUISIANA

CITY           SKY/WX    TMP DP  RH WIND       PRES   REMARKS
FORT POLK      CLOUDY    52  50  93 NE8       30.10F FOG
6HR MIN TEMP:  51; 6HR MAX TEMP:  53;

ALEXANDRIA INT CLOUDY    51  50  96 N5        30.13S FOG
6HR MIN TEMP:  51; 6HR MAX TEMP:  52;

ALEXANDRIA     CLOUDY    52  50  93 NE3       30.14F
6HR MIN TEMP:  52; 6HR MAX TEMP:  53;


$$

LAZ001-002-190700-
NORTHWEST LOUISIANA

CITY           SKY/WX    TMP DP  RH WIND       PRES   REMARKS
SHREVEPORT     CLOUDY    51  47  86 E9        30.14F
6HR MIN TEMP:  50; 6HR MAX TEMP:  51;

BARKSDALE AFB  NOT AVBL
DTN SHREVEPORT CLOUDY    50  46  86 NE5       30.16F
6HR MIN TEMP:  50; 6HR MAX TEMP:  50;


$$

LAZ014-016-190700-
NORTHEAST LOUISIANA

CITY           SKY/WX    TMP DP  RH WIND       PRES   REMARKS
MONROE         CLOUDY    47  46  97 N6        30.20S
6HR MIN TEMP:  44; 6HR MAX TEMP:  51;

TALLULAH       CLOUDY    50  45  83 NE3       30.19S
6HR MIN TEMP:  43; 6HR MAX TEMP:  50;


$$



USA.gov is the U.S. government's official web portal to all federal, state and local government web resources and services.